{"data":{"norad_id":42946,"intl_designator":"2017-058B","name":"YAOGAN-30 02B","alt_names":[],"object_type":"PAYLOAD","status":"ACTIVE","operator":null,"country":"PRC","launch_date":"2017-09-29","launch_site_code":"XICLF","launch_vehicle":null,"mission":null,"orbit_class":"UNKNOWN","rcs_meters":null,"size_class":null,"mass_kg":null,"dimensions":null,"purposes":[],"wikipedia_slug":null,"has_3d_model":false,"image_url":null,"decayed_at":null,"tle_current":{"epoch":"2026-09-20T04:30:45.480096Z","epoch_age_seconds":75323,"freshness":"FRESH","line1":"1 42946U 17058B   26263.18802639  .00001826  00000+0  13445-3 0  9998","line2":"2 42946  34.9969 170.8349 0001287  48.2226 311.8592 15.03203143490162","mean_motion":15.03203143,"eccentricity":0.0001287,"inclination_deg":34.9969,"raan_deg":170.8349,"arg_perigee_deg":48.2226,"mean_anomaly_deg":311.8592,"bstar":0.00013445,"rev_number":49016,"period_min":95.795435680512,"perigee_km":556.13426883854,"apogee_km":557.91938000695,"semimajor_km":6935.1638244227,"source":"CELESTRAK","updated_at":"2026-09-20T09:00:14.252373Z"}}}